Home   Weather   Boa Vista   Past weeks
Flag for Brazil

Past Weather in Boa Vista, Roraima, Brazil — Yesterday and Last 2 Weeks

Now
86 °F

Clear.


Feels Like: 89 °F
Forecast: 93 / 82 °F
Wind: 9 mph from Southeast

Location: Boa Vista Aeropor-To

Current Time: Apr 3, 2020 at 11:13:29 pm

Latest Report: Apr 3, 2020 at 11:00 pm


Visibility: 10 mi

Pressure: 29.86 "Hg

Humidity: 55%

Dew Point: 68 °F

Location of Boa VistaLocation

Past Weather in Boa Vista — Graph

°F

Boa Vista Temperature Yesterday

Maximum temperature yesterday: 91 °F (at 1:00 pm)
Minimum temperature yesterday: 82 °F (at 2:00 am)
Average temperature yesterday: 87 °F

High & Low Weather Summary for the Past Weeks

 TemperatureHumidityPressure
High97 °F (Mar 22, 3:00 pm)79% (Mar 19, 10:00 pm)29.98 "Hg (Mar 19, 10:00 pm)
Low77 °F (Mar 20, 3:00 am)28% (Mar 22, 4:00 pm)29.65 "Hg (Mar 27, 6:00 pm)
Average87 °F54%29.84 "Hg
* Reported Mar 19 10:00 pm — Apr 3 10:00 pm, Boa Vista. Weather by CustomWeather, © 2020

Note: Actual official high and low records may vary slightly from our data, if they occured in-between our weather recording intervals... More about our weather records

Boa Vista Weather History for the Previous 24 Hours

Scroll right to see more
 ConditionsComfort  
Time TempWeatherWind HumidityBarometerVisibility
10:00 pm
Fri, Apr 3
88 °FPassing clouds.10 mph52%29.83 "HgN/A
9:00 pm90 °FPassing clouds.8 mph46%29.80 "HgN/A
8:00 pm91 °FPassing clouds.5 mph44%29.77 "HgN/A
7:00 pm91 °FPassing clouds.6 mph44%29.74 "HgN/A
6:00 pm95 °FScattered clouds.9 mph36%29.71 "HgN/A
5:00 pm95 °FScattered clouds.12 mph39%29.71 "HgN/A
4:00 pm95 °FBroken clouds.9 mph36%29.74 "HgN/A
3:00 pm95 °FBroken clouds.6 mph36%29.77 "HgN/A
2:00 pm93 °FPartly sunny.6 mph41%29.83 "HgN/A
1:00 pm95 °FPartly sunny.7 mph39%29.86 "HgN/A
12:00 pm93 °FPartly sunny.9 mph44%29.89 "HgN/A
11:00 am90 °FPartly sunny.8 mph52%29.95 "HgN/A
10:00 am84 °FMostly cloudy.9 mph66%29.98 "HgN/A
9:00 am84 °FBroken clouds.10 mph62%29.95 "HgN/A
8:00 am82 °FPartly sunny.9 mph66%29.95 "HgN/A
7:00 am79 °FSunny.8 mph79%29.92 "Hg10 mi
6:00 am79 °FClear.7 mph74%29.86 "Hg10 mi
5:00 am81 °FClear.6 mph74%29.86 "Hg10 mi
4:00 am81 °FClear.5 mph74%29.83 "Hg10 mi
3:00 am81 °FClear.3 mph74%29.83 "Hg10 mi
2:00 am82 °FClear.5 mph66%29.86 "Hg10 mi
1:00 am82 °FClear.8 mph66%29.89 "Hg10 mi
12:00 am84 °FClear.10 mph62%29.92 "Hg10 mi
11:00 pm
Thu, Apr 2
84 °FClear.13 mph62%29.92 "Hg10 mi
Weather by CustomWeather, © 2020

See weather overview

Advertising